Other Public Products
Issued by NWS Charleston, SC

Current Version | Previous Version | Graphics & Text | Print | Product List | Glossary On
Versions: 1 2 3 4 5 6 7 8 9 10 11 12 13 14 15 16 17 18 19 20 21 22 23 24 25 26 27 28 29 30 31 32 33 34 35 36 37 38 39 40 41 42 43 44 45 46 47 48 49 50
444
FPUS82 KCHS 060112
OPUCHS

TEST...KCHS/KSAV Gateway Observations...TEST
National Weather Service Charleston SC
800 PM EST MON DEC 05 2016

NOTE: "fair" indicates few or no clouds below 12,000 feet with no
significant weather and/or obstructions to visibility.

SCZ050-WAZ558-NCZ071-TXZ119-213-PAZ071-DCZ001-FLZ074-172-MI076-
NYZ176-178-MAZ016-IL014-TNZ027-NJZ106-GAZ044-MD014-060200-
...Gateway Observations for Charleston International...

CITY           SKY/WX    TMP DP  RH WIND       PRES   REMARKS
Chas Airport   RAIN      58  55  90 E12       29.99R FOG
Seattle        LGT RAIN  37  36  96 SE8       30.00F FOG     WCI  31
Charlotte      LGT RAIN  53  48  83 E3        30.04R
Dallas DFW     CLOUDY    51  47  86 CALM      29.71S
Dallas Love    CLOUDY    50  48  93 SE6       29.72S
Philladelphia  MOCLDY    47  33  58 NW10      30.10R
Wash National  CLOUDY    50  36  58 N8        30.10R
Baltimore      CLOUDY    45  33  63 N5        30.09R
Miami          PTCLDY    77  72  84 SE9       29.96S
Detroit        PTCLDY    33  28  81 S6        30.08R WCI  28
Newark         CLOUDY    44  34  67 W5        30.06R
Laguardia      PTCLDY    47  33  58 NW9       30.05R
J F K          MOCLDY    46  31  55 NW9       30.07R
Boston Logan   PTCLDY    39  33  79 W9        29.95S WCI  33
Ft. Lauderdale PTCLDY    78  72  81 S8        29.96R
Chicago O`Hare CLOUDY    32  30  92 SE7       29.98S FOG     WCI  26
Chicago Midway CLOUDY    33  29  85 SE10      29.99F WCI  25
Houston Bush   DRIZZLE   52  50  93 W7        29.77R FOG
Houston Hobby  CLOUDY    53  50  89 W12       29.77R
Nashville      CLOUDY    48  43  82 NE7       29.89R
Atlanta        LGT RAIN  52  51  97 NE13      29.92F FOG

$$

GAZ044-118-TXZ119-213-NCZ071-DCZ001-MDZ014-506-PAZ021-071-NJZ106-
NYZ176-178-MAZ106-OHZ011-021-055-MIZ076-KYZ091-ILZ014-INZ047-
MNZ060-060200-
...Gateway Observations for Savannah International...

CITY           SKY/WX    TMP DP  RH WIND       PRES   REMARKS
Savannah Arpt  LGT RAIN  59  57  93 E9        29.95S VSB 1
Atlanta        LGT RAIN  52  51  97 NE13      29.92F FOG
Charlotte      LGT RAIN  53  48  83 E3        30.04R
Dallas DFW     CLOUDY    51  47  86 CALM      29.71S
Houston Bush   DRIZZLE   52  50  93 W7        29.77R FOG
Wash National  CLOUDY    50  36  58 N8        30.10R
Wash Dulles    CLOUDY    47  31  53 N7        30.09R
Baltimore      CLOUDY    45  33  63 N5        30.09R
Philadelphia   MOCLDY    47  33  58 NW10      30.10R
Newark         CLOUDY    44  34  67 W5        30.06R
Laguardia      PTCLDY    47  33  58 NW9       30.05R
J F K          MOCLDY    46  31  55 NW9       30.07R
Boston         PTCLDY    39  33  79 W9        29.95S WCI  33
Pittsburg      CLOUDY    36  29  75 NE6       30.08S WCI  31
Akron          CLOUDY    34  27  75 CALM      30.08S
Cleveland      PTCLDY    33  27  78 CALM      30.11S
Cincinnati     CLOUDY    41  34  76 E9        29.97F
Columbus       PTCLDY    33  30  89 E5        30.06F WCI  28
Detroit        PTCLDY    33  28  81 S6        30.08R WCI  28
Chicago O`Hare CLOUDY    32  30  92 SE7       29.98S FOG     WCI  26
Minneapolis    CLOUDY    38  31  76 SE18      29.66S WCI  28
Indianapolis   PTCLDY    37  33  85 E10       29.95F WCI  30

$$




USA.gov is the U.S. government's official web portal to all federal, state and local government web resources and services.